�N����,����,�~����,�C��,���x,�C��,����,���ϕ���,�ő�u�ԕ���,�ő厞����,���˗�,�I�_���x,�n�����x,�ő啗���N��,DTYPE
"16/08/02","00:10",0.0,23.5,88.9,1003.1,297.3,0.8,1.3,317.1,0.00,21.6,26.6,"00:07:52",1
"16/08/02","00:20",0.0,23.4,89.1,1003.1,290.2,0.8,1.3,338.4,0.00,21.5,26.6,"00:11:44",1
"16/08/02","00:30",0.0,23.4,88.9,1003.4,287.4,0.7,1.2,311.6,0.00,21.5,26.5,"00:22:16",1
"16/08/02","00:40",0.0,23.5,88.7,1003.1,291.8,0.8,1.9,322.8,0.00,21.6,26.4,"00:30:40",1
"16/08/02","00:50",0.0,23.5,88.6,1003.1,295.8,0.8,1.4,304.1,0.00,21.5,26.5,"00:49:28",1
"16/08/02","01:00",0.0,23.6,88.3,1002.9,293.4,0.8,1.2,295.7,0.00,21.6,26.4,"00:50:56",1
"16/08/02","01:10",0.0,23.7,87.9,1002.9,291.1,0.8,1.7,326.4,0.00,21.6,26.4,"01:02:48",1
"16/08/02","01:20",0.0,23.8,87.3,1003.1,293.1,0.8,1.1,288.2,0.00,21.6,26.3,"01:10:56",1
"16/08/02","01:30",0.0,23.8,87.3,1002.9,307.8,1.0,1.9,343.7,0.00,21.6,26.4,"01:28:08",1
"16/08/02","01:40",0.0,23.9,87.3,1002.6,309.7,1.0,1.4,326.9,0.00,21.7,26.1,"01:33:12",1
"16/08/02","01:50",0.0,23.9,87.3,1002.4,321.4,1.1,2.6,337.1,0.00,21.7,26.2,"01:49:12",1
"16/08/02","02:00",0.0,23.9,87.2,1002.4,326.6,1.2,2.8,331.8,0.00,21.7,26.0,"01:51:04",1
"16/08/02","02:10",0.0,23.9,87.1,1002.9,337.4,1.2,1.9,345.9,0.00,21.7,26.2,"02:00:16",1
"16/08/02","02:20",0.0,23.8,87.1,1002.6,318.9,1.1,2.5,331.4,0.00,21.6,26.2,"02:12:40",1
"16/08/02","02:30",0.0,23.9,87.1,1003.1,329.8,1.2,2.9,359.0,0.00,21.7,26.0,"02:20:08",1
"16/08/02","02:40",0.0,23.8,87.5,1003.6,321.8,1.0,1.7,324.0,0.00,21.6,25.8,"02:32:40",1
"16/08/02","02:50",0.0,23.9,87.5,1003.1,333.2,1.1,2.4,352.9,0.00,21.7,26.1,"02:49:20",1
"16/08/02","03:00",0.0,23.9,87.1,1002.9,332.0,1.3,2.9,332.6,0.00,21.7,26.0,"02:55:04",1
"16/08/02","03:10",0.0,23.9,87.3,1003.1,329.3,1.1,2.1,357.2,0.00,21.7,25.9,"03:02:08",1
"16/08/02","03:20",0.0,23.9,87.3,1002.9,324.7,1.0,1.9,345.7,0.00,21.7,25.9,"03:15:52",1
"16/08/02","03:30",0.0,23.8,87.5,1002.9,332.1,1.0,1.7,8.8,0.00,21.6,25.8,"03:21:04",1
"16/08/02","03:40",0.0,23.6,87.6,1002.4,337.5,1.2,2.0,347.0,0.00,21.5,26.0,"03:37:04",1
"16/08/02","03:50",0.0,23.3,88.1,1002.6,332.0,1.3,2.5,329.2,0.00,21.3,25.9,"03:44:40",1
"16/08/02","04:00",0.0,23.2,88.7,1002.6,316.5,1.1,2.2,336.9,0.00,21.3,25.9,"03:52:24",1
"16/08/02","04:10",0.0,23.2,89.4,1002.9,325.1,1.1,2.6,328.9,0.00,21.4,25.9,"04:00:02",1
"16/08/02","04:20",0.0,23.3,89.7,1002.4,308.8,1.0,1.8,325.1,0.00,21.6,25.7,"04:13:44",1
"16/08/02","04:30",0.0,23.3,89.9,1002.9,320.4,1.1,2.5,327.7,0.00,21.6,25.5,"04:25:44",1
"16/08/02","04:40",0.0,23.2,90.0,1002.6,328.2,1.3,2.2,346.4,0.00,21.5,25.7,"04:39:20",1
"16/08/02","04:50",0.0,23.2,90.3,1002.4,324.1,1.2,2.2,333.0,0.00,21.6,25.7,"04:46:16",1
"16/08/02","05:00",0.0,23.2,90.2,1002.9,325.5,1.2,2.6,342.3,0.00,21.5,25.5,"04:54:56",1
"16/08/02","05:10",0.0,23.2,89.9,1002.9,335.5,1.6,2.8,346.0,0.00,21.5,25.7,"05:04:56",1
"16/08/02","05:20",0.0,23.2,89.9,1003.1,337.9,1.6,3.2,344.2,0.00,21.5,25.7,"05:14:40",1
"16/08/02","05:30",0.0,23.2,89.9,1002.9,340.9,1.6,2.8,345.6,0.00,21.5,25.6,"05:21:20",1
"16/08/02","05:40",0.0,23.2,89.5,1002.9,339.5,1.6,2.9,339.1,0.00,21.4,25.2,"05:39:52",1
"16/08/02","05:50",0.0,23.2,89.5,1002.6,335.5,1.5,2.6,350.5,0.00,21.4,25.4,"05:43:04",1
"16/08/02","06:00",0.0,23.4,89.8,1003.4,326.6,1.2,2.8,332.5,0.00,21.7,25.5,"05:56:00",1
"16/08/02","06:10",0.0,23.6,89.4,1003.1,326.5,1.2,2.4,6.7,0.01,21.8,25.5,"06:07:20",1
"16/08/02","06:20",0.0,23.8,88.7,1003.1,343.1,1.6,2.9,347.4,0.02,21.9,25.3,"06:11:52",1
"16/08/02","06:30",0.0,24.1,88.0,1003.4,326.0,1.1,1.8,345.7,0.04,22.0,25.5,"06:23:36",1
"16/08/02","06:40",0.0,24.9,86.9,1003.1,325.1,1.0,1.4,340.1,0.05,22.6,25.5,"06:35:04",1
"16/08/02","06:50",0.0,25.6,84.4,1003.4,318.1,0.6,1.2,3.9,0.06,22.8,25.5,"06:42:40",1
"16/08/02","07:00",0.0,25.8,82.7,1003.1,336.6,0.5,1.1,337.4,0.07,22.7,25.7,"06:50:32",1
"16/08/02","07:10",0.0,26.2,82.9,1002.9,329.3,0.5,1.6,324.8,0.08,23.1,25.7,"07:07:04",1
"16/08/02","07:20",0.0,27.5,79.8,1002.6,2.1,0.3,1.3,15.9,0.17,23.7,25.7,"07:15:44",1
"16/08/02","07:30",0.0,27.5,77.3,1002.6,267.4,0.2,1.1,215.8,0.16,23.2,25.8,"07:28:40",1
"16/08/02","07:40",0.0,27.3,76.2,1002.4,309.1,0.5,1.9,7.4,0.14,22.8,25.7,"07:39:28",1
"16/08/02","07:50",0.0,27.6,77.2,1001.9,1.7,0.3,1.3,27.7,0.15,23.3,26.1,"07:41:52",1
"16/08/02","08:00",0.0,27.6,76.4,1002.4,355.4,0.5,2.1,37.0,0.15,23.1,26.1,"07:54:32",1
"16/08/02","08:10",0.0,27.3,77.9,1002.2,354.5,0.7,1.9,358.5,0.12,23.1,26.2,"08:05:28",1
"16/08/02","08:20",0.0,27.2,79.0,1002.2,352.9,0.5,1.4,315.9,0.11,23.3,26.2,"08:10:32",1
"16/08/02","08:30",0.0,27.3,78.4,1001.9,332.0,0.2,0.9,359.6,0.11,23.3,26.4,"08:24:00",1
"16/08/02","08:40",0.0,27.4,77.6,1002.2,345.6,0.2,1.0,356.7,0.12,23.2,26.6,"08:34:08",1
"16/08/02","08:50",0.0,27.4,77.7,1002.2,352.0,0.6,1.6,323.2,0.14,23.2,26.5,"08:43:36",1
"16/08/02","09:00",0.0,27.7,77.6,1001.9,326.7,0.5,1.8,2.3,0.17,23.5,26.6,"08:53:20",1
"16/08/02","09:10",0.0,28.7,75.4,1001.9,10.6,0.3,1.3,356.0,0.27,24.0,26.6,"09:02:56",1
"16/08/02","09:20",0.0,29.6,72.1,1002.4,136.0,0.5,1.4,29.1,0.36,24.1,26.7,"09:15:12",1
"16/08/02","09:30",0.0,30.5,66.7,1003.1,30.0,0.6,2.0,11.0,0.46,23.6,26.9,"09:23:04",1
"16/08/02","09:40",0.0,31.1,64.6,1003.8,125.7,0.6,2.5,225.7,0.46,23.7,27.2,"09:33:20",1
"16/08/02","09:50",0.0,31.1,62.2,1004.1,171.2,1.1,2.7,218.9,0.48,23.1,27.5,"09:49:52",1
"16/08/02","10:00",0.0,31.3,63.8,1004.1,203.8,1.1,2.9,220.5,0.49,23.7,27.5,"09:53:04",1
"16/08/02","10:10",0.0,31.1,65.7,1004.3,186.2,1.3,2.9,209.5,0.43,24.0,27.9,"10:00:24",1
"16/08/02","10:20",0.0,31.4,61.6,1004.3,189.9,1.3,2.9,212.2,0.49,23.2,28.2,"10:10:40",1
"16/08/02","10:30",0.0,31.7,62.8,1004.3,175.4,0.8,2.0,129.7,0.45,23.8,28.4,"10:29:44",1
"16/08/02","10:40",0.0,32.2,63.4,1004.5,210.6,1.0,3.9,229.1,0.52,24.4,28.5,"10:33:36",1
"16/08/02","10:50",0.0,31.8,63.9,1004.3,139.8,0.5,1.4,192.7,0.36,24.2,28.6,"10:44:08",1
"16/08/02","11:00",0.0,32.9,58.1,1004.3,27.7,0.6,2.0,15.5,0.55,23.6,29.1,"10:58:40",1
"16/08/02","11:10",0.0,32.7,57.9,1004.3,15.1,1.3,2.5,13.1,0.56,23.4,29.0,"11:01:12",1
"16/08/02","11:20",0.0,31.5,60.3,1003.8,58.0,0.8,2.2,37.1,0.18,22.9,29.2,"11:14:08",1
"16/08/02","11:30",0.0,32.2,60.5,1003.6,35.6,1.0,1.8,45.3,0.34,23.6,29.4,"11:24:40",1
"16/08/02","11:40",0.0,33.2,57.7,1003.6,176.3,0.8,1.7,213.8,0.59,23.8,29.6,"11:33:36",1
"16/08/02","11:50",0.0,33.8,55.0,1003.8,169.3,0.6,1.7,172.2,0.59,23.5,29.6,"11:40:32",1
"16/08/02","12:00",0.0,34.0,56.7,1003.8,174.0,0.8,2.0,190.9,0.60,24.2,30.0,"11:58:08",1
"16/08/02","12:10",0.0,32.1,60.8,1003.8,219.4,1.0,3.2,219.1,0.19,23.6,30.2,"12:00:40",1
"16/08/02","12:20",0.0,31.6,61.1,1003.4,225.6,0.8,2.5,224.0,0.14,23.2,29.9,"12:19:12",1
"16/08/02","12:30",0.0,32.7,59.1,1003.1,223.8,0.7,2.6,227.5,0.37,23.7,30.2,"12:23:44",1
"16/08/02","12:40",0.0,33.7,57.5,1002.9,208.1,0.8,3.3,214.3,0.58,24.2,30.2,"12:36:40",1
"16/08/02","12:50",0.0,33.5,56.8,1003.1,204.7,0.6,2.4,218.5,0.42,23.8,30.6,"12:42:40",1
"16/08/02","13:00",0.0,33.5,57.8,1003.4,246.5,0.3,1.1,212.9,0.36,24.1,30.5,"12:51:44",1
"16/08/02","13:10",0.0,33.1,55.5,1002.9,200.9,0.5,2.4,223.8,0.34,23.0,30.6,"13:05:20",1
"16/08/02","13:20",0.0,33.6,52.8,1002.9,181.4,0.7,2.5,217.0,0.38,22.7,30.5,"13:15:12",1
"16/08/02","13:30",0.0,33.0,56.8,1002.6,98.7,0.8,2.6,340.2,0.34,23.3,30.5,"13:24:32",1
"16/08/02","13:40",0.0,32.6,58.6,1002.4,118.7,0.6,1.8,342.6,0.20,23.5,30.5,"13:34:40",1
"16/08/02","13:50",0.0,32.5,56.3,1002.2,93.5,0.7,1.9,21.6,0.16,22.7,30.4,"13:46:56",1
"16/08/02","14:00",0.0,32.6,55.8,1001.7,318.8,0.6,1.6,339.4,0.21,22.7,30.5,"13:52:08",1
"16/08/02","14:10",0.0,33.6,53.8,1001.7,342.5,1.1,2.7,340.3,0.35,23.0,30.6,"14:07:12",1
"16/08/02","14:20",0.0,33.8,52.9,1001.2,6.9,1.3,3.3,348.5,0.38,22.9,30.5,"14:14:16",1
"16/08/02","14:30",0.0,33.8,51.2,1001.2,358.7,1.3,3.3,339.3,0.38,22.4,30.4,"14:28:48",1
"16/08/02","14:40",0.0,33.7,51.7,1001.5,338.8,1.1,2.6,7.0,0.38,22.4,30.4,"14:32:24",1
"16/08/02","14:50",0.0,33.0,52.4,1000.8,2.5,1.5,3.1,6.3,0.25,22.0,30.6,"14:42:08",1
"16/08/02","15:00",0.0,33.0,57.9,1000.5,343.9,1.0,2.5,353.0,0.21,23.6,30.6,"14:54:40",1
"16/08/02","15:10",0.0,32.2,54.5,1000.5,353.2,1.5,3.7,354.0,0.19,21.9,30.4,"15:04:48",1
"16/08/02","15:20",0.0,32.8,53.4,1000.3,3.7,1.8,4.7,347.2,0.24,22.1,30.4,"15:16:56",1
"16/08/02","15:30",0.0,33.1,54.1,1000.3,353.6,1.2,2.7,351.1,0.26,22.6,30.5,"15:27:12",1
"16/08/02","15:40",0.0,32.7,53.7,1000.3,356.2,1.8,4.9,353.4,0.24,22.1,30.4,"15:39:12",1
"16/08/02","15:50",0.0,32.0,55.5,1000.0,354.9,1.8,4.2,355.0,0.19,22.0,30.4,"15:43:44",1
"16/08/02","16:00",0.0,31.8,57.3,1000.3,359.3,1.7,4.2,355.1,0.17,22.4,30.2,"15:54:32",1
"16/08/02","16:10",0.0,31.5,57.8,1000.0,8.8,1.8,4.8,335.2,0.15,22.2,30.0,"16:08:24",1
"16/08/02","16:20",0.0,31.2,59.2,999.6,1.8,2.0,3.7,342.0,0.15,22.3,30.0,"16:12:48",1
"16/08/02","16:30",0.0,31.2,59.3,1000.0,2.8,1.0,3.5,352.5,0.14,22.4,30.1,"16:29:52",1
"16/08/02","16:40",0.0,30.8,59.5,1000.0,349.8,1.2,4.1,347.6,0.15,22.0,29.9,"16:34:08",1
"16/08/02","16:50",0.0,30.7,60.7,999.6,359.9,1.6,4.7,1.2,0.13,22.3,29.9,"16:41:44",1
"16/08/02","17:00",0.0,30.7,61.9,999.6,347.5,1.0,3.9,352.0,0.11,22.6,30.0,"16:51:20",1
"16/08/02","17:10",0.0,30.9,60.8,999.3,12.1,0.7,3.4,10.5,0.10,22.5,29.7,"17:09:44",1
"16/08/02","17:20",0.0,30.9,58.4,999.8,2.1,1.5,4.2,357.2,0.08,21.8,29.8,"17:18:24",1
"16/08/02","17:30",0.0,30.5,60.7,999.8,8.3,1.6,4.4,357.1,0.07,22.1,29.7,"17:21:04",1
"16/08/02","17:40",0.0,30.2,60.9,999.3,0.8,1.1,3.9,350.9,0.06,21.9,29.5,"17:33:36",1
"16/08/02","17:50",0.0,30.0,62.3,999.6,355.5,1.0,2.6,4.4,0.05,22.0,29.5,"17:40:32",1
"16/08/02","18:00",0.0,29.6,62.9,999.6,350.7,1.1,3.4,3.4,0.04,21.8,29.3,"17:57:36",1
"16/08/02","18:10",0.0,29.3,63.0,999.6,359.1,1.0,2.9,0.0,0.03,21.6,29.3,"18:00:48",1
"16/08/02","18:20",0.0,29.3,64.2,999.8,0.5,0.7,1.8,335.8,0.02,21.9,29.1,"18:15:28",1
"16/08/02","18:30",0.0,29.0,65.0,999.6,338.4,0.5,2.4,355.5,0.02,21.8,29.2,"18:25:20",1
"16/08/02","18:40",0.0,28.8,66.0,999.6,339.7,0.5,1.6,348.5,0.01,21.9,29.0,"18:31:28",1
"16/08/02","18:50",0.0,28.5,66.9,1000.3,340.9,1.0,2.2,359.2,0.00,21.8,28.9,"18:46:24",1
"16/08/02","19:00",0.0,28.2,67.1,1000.0,344.9,0.8,1.8,348.3,0.00,21.6,28.9,"18:53:12",1
"16/08/02","19:10",0.0,27.9,68.3,1000.3,311.7,0.5,1.4,329.7,0.00,21.6,28.8,"19:00:24",1
"16/08/02","19:20",0.0,27.5,69.4,1000.5,311.8,0.6,1.4,334.2,0.00,21.4,28.7,"19:13:04",1
"16/08/02","19:30",0.0,27.3,70.0,1000.8,328.3,1.0,2.8,358.0,0.00,21.4,28.3,"19:29:20",1
"16/08/02","19:40",0.0,27.2,70.8,1000.8,322.3,0.7,1.8,332.2,0.00,21.5,28.4,"19:38:56",1
"16/08/02","19:50",0.0,27.0,71.6,1000.8,313.2,0.8,2.1,348.5,0.00,21.5,28.4,"19:45:36",1
"16/08/02","20:00",0.0,27.0,72.1,1001.0,326.8,1.2,2.9,359.5,0.00,21.6,28.2,"19:58:56",1
"16/08/02","20:10",0.0,26.9,72.3,1001.2,330.3,1.5,3.4,15.4,0.00,21.5,28.2,"20:07:12",1
"16/08/02","20:20",0.0,26.8,72.6,1001.5,317.2,1.1,2.6,355.8,0.00,21.5,28.2,"20:14:40",1
"16/08/02","20:30",0.0,26.8,72.7,1001.5,342.2,1.3,2.9,35.6,0.00,21.5,28.2,"20:28:48",1
"16/08/02","20:40",0.0,26.8,72.5,1001.5,5.2,0.8,3.5,29.7,0.00,21.5,28.1,"20:32:00",1
"16/08/02","20:50",0.0,26.6,73.8,1001.9,297.9,0.6,1.6,338.4,0.00,21.6,27.8,"20:47:44",1
"16/08/02","21:00",0.0,26.3,74.8,1001.9,342.1,0.8,2.1,341.9,0.00,21.5,27.7,"20:53:52",1
"16/08/02","21:10",0.0,26.1,76.0,1001.9,343.2,0.7,1.2,349.6,0.00,21.6,27.8,"21:03:44",1
"16/08/02","21:20",0.0,25.8,77.1,1002.2,332.3,0.7,1.7,351.4,0.00,21.5,27.6,"21:10:56",1
"16/08/02","21:30",0.0,25.6,77.9,1001.9,326.1,0.8,2.2,339.1,0.00,21.5,27.7,"21:23:28",1
"16/08/02","21:40",0.0,25.4,79.0,1001.9,302.6,0.5,1.6,322.9,0.00,21.5,27.6,"21:32:56",1
"16/08/02","21:50",0.0,25.3,79.6,1001.9,311.8,0.6,1.0,286.2,0.00,21.6,27.6,"21:44:00",1
"16/08/02","22:00",0.0,25.2,79.6,1002.4,303.9,0.5,1.2,325.3,0.00,21.5,27.3,"21:55:44",1
"16/08/02","22:10",0.0,25.1,80.1,1002.2,273.2,0.5,1.0,244.0,0.00,21.5,27.3,"22:01:52",1
"16/08/02","22:20",0.0,24.8,80.9,1002.2,266.8,0.7,1.3,254.1,0.00,21.3,27.4,"22:12:48",1
"16/08/02","22:30",0.0,24.7,81.5,1002.4,286.2,0.5,0.9,236.7,0.00,21.4,27.0,"22:23:20",1
"16/08/02","22:40",0.0,24.6,81.7,1002.9,288.7,0.5,1.2,306.9,0.00,21.3,27.1,"22:38:00",1
"16/08/02","22:50",0.0,24.7,81.7,1002.2,275.5,0.5,1.0,239.8,0.00,21.4,27.1,"22:44:56",1
"16/08/02","23:00",0.0,24.5,81.9,1002.6,292.8,0.5,1.0,320.7,0.00,21.2,26.9,"22:56:48",1
"16/08/02","23:10",0.0,24.3,82.7,1002.4,306.6,0.6,1.2,344.7,0.00,21.2,27.0,"23:09:44",1
"16/08/02","23:20",0.0,24.3,82.9,1002.4,308.5,0.7,1.4,340.5,0.00,21.2,26.9,"23:14:16",1
"16/08/02","23:30",0.0,24.3,83.2,1002.6,302.6,0.7,1.3,319.4,0.00,21.3,26.7,"23:25:44",1
"16/08/02","23:40",0.0,24.3,83.3,1002.2,327.4,1.0,1.7,333.2,0.00,21.3,27.0,"23:34:48",1
"16/08/02","23:50",0.0,24.2,83.4,1002.2,317.5,0.8,1.6,326.3,0.00,21.2,26.8,"23:49:44",1
"16/08/02","24:00",0.0,24.2,83.5,1002.2,329.5,1.2,2.5,348.8,0.00,21.3,26.7,"23:59:28",1
